Location: Zagreb
(45.8000°N, 16.0000°E)
Time: 14:39:05
(UTC+02:00)

Transit 2A - All Passes

Search period start: 19 July 2024 00:00
Search period end: 29 July 2024 00:00
Orbit: 591 x 960 km, 66.7° (Epoch: 18 July)

Date Brightness Start Highest point End Pass type
(mag) Time Alt. Az. Time Alt. Az. Time Alt. Az.
19 Jul - 08:22:56 10° SSE 08:26:47 21° ESE 08:30:56 10° ENE daylight
19 Jul - 10:04:01 10° SW 10:09:17 66° NW 10:15:10 10° NNE daylight
19 Jul - 11:49:49 10° WNW 11:53:42 18° NNW 11:57:47 10° NNE daylight
19 Jul - 15:22:27 10° N 15:25:37 14° NNE 15:28:52 10° NE daylight
19 Jul - 17:04:46 10° NNW 17:10:38 39° NE 17:16:31 10° ESE daylight
19 Jul - 18:47:56 10° NW 18:54:02 51° WSW 19:00:04 10° S daylight
20 Jul - 07:49:09 10° SE 07:51:51 14° E 07:54:40 10° ENE daylight
20 Jul - 09:28:42 10° SSW 09:33:59 89° ESE 09:39:53 10° NNE daylight
20 Jul - 11:13:40 10° W 11:18:01 23° NW 11:22:41 10° NNE daylight
20 Jul - 13:02:36 10° NNW 13:03:37 10° N 13:04:40 10° N daylight
20 Jul - 14:47:24 10° N 14:49:49 12° NNE 14:52:15 10° NE daylight
20 Jul - 16:29:36 10° NNW 16:35:06 31° NE 16:40:38 10° ESE daylight
20 Jul - 18:12:31 10° NW 18:18:50 70° WSW 18:25:04 10° SSE daylight
20 Jul - 19:58:21 10° WNW 20:00:56 13° W 20:03:31 10° SW daylight
21 Jul - 08:53:34 10° SSW 08:58:44 63° ESE 09:04:31 10° NE daylight
21 Jul - 10:37:39 10° W 10:42:24 29° NW 10:47:33 10° NNE daylight
21 Jul - 12:25:46 10° NW 12:27:45 12° NNW 12:29:46 10° N daylight
21 Jul - 14:12:24 10° N 14:13:56 11° NNE 14:15:30 10° NNE daylight
21 Jul - 15:54:28 10° NNW 15:59:30 24° NE 16:04:35 10° E daylight
21 Jul - 17:37:11 10° NNW 17:43:35 87° ENE 17:49:53 10° SSE daylight
21 Jul - 19:21:47 10° WNW 19:26:00 19° WSW 19:30:10 10° SW daylight
22 Jul - 08:18:38 10° S 08:23:35 44° ESE 08:29:04 10° NE daylight
22 Jul - 10:01:49 10° WSW 10:06:52 37° NW 10:12:23 10° NNE daylight
22 Jul - 11:49:10 10° NW 11:51:55 13° NNW 11:54:44 10° N daylight
22 Jul - 13:37:38 10° N 13:38:03 10° N 13:38:26 10° N daylight
22 Jul - 15:19:21 10° NNW 15:23:50 20° NNE 15:28:23 10° ENE daylight
22 Jul - 17:01:55 10° NNW 17:08:14 66° NE 17:14:30 10° SE daylight
22 Jul - 18:45:50 10° NW 18:51:00 27° WSW 18:56:05 10° SSW daylight
23 Jul - 07:43:58 10° S 07:48:31 30° ESE 07:53:28 10° NE daylight
23 Jul - 09:26:09 10° SW 09:31:23 50° NW 09:37:11 10° NNE daylight
23 Jul - 11:12:42 10° WNW 11:16:07 16° NNW 11:19:40 10° N daylight
23 Jul - 14:44:14 10° NNW 14:48:07 17° NNE 14:52:01 10° ENE daylight
23 Jul - 16:26:41 10° NNW 16:32:50 50° NE 16:38:56 10° SE daylight
23 Jul - 18:10:10 10° NW 18:15:56 37° WSW 18:21:34 10° S daylight
24 Jul - 07:09:38 10° SSE 07:13:30 21° ESE 07:17:40 10° ENE daylight
24 Jul - 08:50:40 10° SW 08:55:59 68° NW 09:01:56 10° NNE daylight
24 Jul - 10:36:24 10° WNW 10:40:23 19° NNW 10:44:35 10° NNE daylight
24 Jul - 14:09:10 10° N 14:12:20 14° NNE 14:15:32 10° NE daylight
24 Jul - 15:51:30 10° NNW 15:57:21 38° NE 16:03:13 10° ESE daylight
24 Jul - 17:34:39 10° NW 17:40:47 52° WSW 17:46:48 10° S daylight
25 Jul - 06:35:53 10° SE 06:38:34 14° E 06:41:22 10° ENE daylight
25 Jul - 08:15:20 10° SSW 08:20:40 87° ESE 08:26:39 10° NNE daylight
25 Jul - 10:00:15 10° W 10:04:42 23° NW 10:09:28 10° NNE daylight
25 Jul - 11:49:00 10° NNW 11:50:18 11° N 11:51:36 10° N daylight
25 Jul - 13:34:05 10° N 13:36:29 12° NNE 13:38:55 10° NE daylight
25 Jul - 15:16:20 10° NNW 15:21:49 30° NE 15:27:19 10° E daylight
25 Jul - 16:59:14 10° NW 17:05:35 72° WSW 17:11:48 10° SSE daylight
25 Jul - 18:44:58 10° WNW 18:47:41 13° W 18:50:24 10° SW daylight
26 Jul - 07:40:13 10° SSW 07:45:26 62° ESE 07:51:16 10° NE daylight
26 Jul - 09:24:15 10° W 09:29:05 29° NW 09:34:19 10° NNE daylight
26 Jul - 11:12:16 10° NW 11:14:25 12° NNW 11:16:36 10° N daylight
26 Jul - 12:59:02 10° N 13:00:36 11° NNE 13:02:11 10° NNE daylight
26 Jul - 14:41:10 10° NNW 14:46:13 24° NE 14:51:15 10° E daylight
26 Jul - 16:23:54 10° NNW 16:30:18 86° ENE 16:36:35 10° SSE daylight
26 Jul - 18:08:27 10° WNW 18:12:45 19° WSW 18:16:58 10° SSW daylight
27 Jul - 07:05:18 10° S 07:10:17 43° ESE 07:15:48 10° NE daylight
27 Jul - 08:48:25 10° WSW 08:53:32 38° NW 08:59:09 10° NNE daylight
27 Jul - 10:35:41 10° NW 10:38:34 14° NNW 10:41:32 10° N daylight
27 Jul - 12:24:06 10° N 12:24:42 10° N 12:25:18 10° NNE daylight
27 Jul - 14:06:03 10° NNW 14:10:32 20° NNE 14:15:02 10° ENE daylight
27 Jul - 15:48:38 10° NNW 15:54:57 65° NE 16:01:12 10° SE daylight
27 Jul - 17:32:32 10° NW 17:37:44 27° WSW 17:42:51 10° SSW daylight
28 Jul - 06:30:39 10° SSE 06:35:13 30° ESE 06:40:12 10° NE daylight
28 Jul - 08:12:45 10° SW 08:18:04 51° NW 08:23:56 10° NNE daylight
28 Jul - 09:59:14 10° WNW 10:02:46 16° NNW 10:06:27 10° NNE daylight
28 Jul - 13:30:57 10° NNW 13:34:47 16° NNE 13:38:40 10° ENE daylight
28 Jul - 15:13:24 10° NNW 15:19:33 49° NE 15:25:37 10° ESE daylight
28 Jul - 16:56:52 10° NW 17:02:39 38° WSW 17:08:19 10° S daylight
